CEB326 RPVB-RPMD

Flight info

Callsign CEB326
Flight time N/A
Altitude 33000
Route KON2C KANON TR2 CARLO B473 ANKIN ANKIN1
Aircraft A320/M-SDE3FGHIRWY/LB1

Departure

Time 2026-04-21 20:02
Airport Bacolod-Silay International Airport (RPVB)

Arrival

Time N/A
Airport Francisco Bangoy International Airport (RPMD)
Time Latitude Longitude Altitude Speed Heading
2026-04-21 19:51 10.77594 123.01531 87 ft 0 kts 300°
2026-04-21 19:56 10.77593 123.01533 88 ft 2 kts 300°
2026-04-21 19:56 10.77584 123.01548 90 ft 2 kts 300°
2026-04-21 19:56 10.77576 123.01563 87 ft 2 kts 301°
2026-04-21 19:57 10.77567 123.01578 87 ft 3 kts 285°
2026-04-21 19:57 10.77565 123.01596 87 ft 3 kts 249°
2026-04-21 19:57 10.77574 123.01611 89 ft 1 kts 216°
2026-04-21 19:57 10.77575 123.01612 89 ft 0 kts 216°
2026-04-21 19:58 10.77571 123.01609 86 ft 4 kts 216°
2026-04-21 19:58 10.77498 123.01557 88 ft 20 kts 210°
2026-04-21 19:59 10.77405 123.01513 88 ft 11 kts 180°
2026-04-21 19:59 10.77344 123.01549 88 ft 9 kts 123°
2026-04-21 19:59 10.77314 123.01605 88 ft 9 kts 119°
2026-04-21 19:59 10.77282 123.01653 87 ft 8 kts 137°
2026-04-21 20:00 10.77216 123.01649 89 ft 14 kts 206°
2026-04-21 20:00 10.77087 123.01577 91 ft 25 kts 208°
2026-04-21 20:00 10.76972 123.01508 89 ft 12 kts 219°
2026-04-21 20:00 10.76926 123.01446 91 ft 10 kts 221°
2026-04-21 20:01 10.76911 123.01476 90 ft 11 kts 26°
2026-04-21 20:01 10.76945 123.01493 90 ft 0 kts 31°
2026-04-21 20:01 10.77046 123.01554 89 ft 53 kts 30°
2026-04-21 20:02 10.77571 123.01864 91 ft 118 kts 30°
2026-04-21 20:02 10.78403 123.02361 350 ft 148 kts 32°
2026-04-21 20:02 10.79313 123.02849 1099 ft 148 kts 27°
2026-04-21 20:02 10.80243 123.03290 1792 ft 148 kts 27°
2026-04-21 20:03 10.81228 123.03752 2216 ft 166 kts 27°
2026-04-21 20:03 10.82339 123.04281 2510 ft 187 kts 28°
2026-04-21 20:03 10.83589 123.04877 2752 ft 209 kts 28°
2026-04-21 20:03 10.84944 123.05618 3014 ft 233 kts 41°
2026-04-21 20:04 10.85911 123.06993 3438 ft 250 kts 73°
2026-04-21 20:04 10.85944 123.08761 4177 ft 258 kts 106°
2026-04-21 20:04 10.84955 123.10291 4967 ft 268 kts 137°
2026-04-21 20:04 10.83454 123.11452 5808 ft 272 kts 142°
2026-04-21 20:05 10.81894 123.12566 6588 ft 276 kts 143°
2026-04-21 20:05 10.80297 123.13680 7323 ft 281 kts 143°
2026-04-21 20:05 10.78698 123.14798 8074 ft 284 kts 144°
2026-04-21 20:05 10.77062 123.15950 8844 ft 288 kts 144°
2026-04-21 20:06 10.75400 123.17127 9585 ft 293 kts 145°
2026-04-21 20:06 10.73712 123.18329 10201 ft 302 kts 145°
2026-04-21 20:06 10.71926 123.19605 10399 ft 325 kts 145°
2026-04-21 20:06 10.70030 123.20963 10775 ft 339 kts 144°
2026-04-21 20:07 10.68255 123.22566 11357 ft 345 kts 133°
2026-04-21 20:07 10.66841 123.24559 11990 ft 351 kts 120°
2026-04-21 20:07 10.65753 123.26797 12597 ft 355 kts 116°
2026-04-21 20:07 10.64672 123.29076 13208 ft 359 kts 118°
2026-04-21 20:08 10.63323 123.31211 13791 ft 361 kts 131°
2026-04-21 20:08 10.61541 123.33010 14310 ft 362 kts 143°
2026-04-21 20:08 10.59455 123.34391 14825 ft 364 kts 152°
2026-04-21 20:08 10.57250 123.35671 15357 ft 367 kts 151°
2026-04-21 20:09 10.55027 123.36966 15876 ft 370 kts 151°
2026-04-21 20:09 10.52787 123.38274 16425 ft 372 kts 151°
2026-04-21 20:09 10.50532 123.39594 16955 ft 375 kts 151°
2026-04-21 20:09 10.48261 123.40920 17484 ft 378 kts 151°
2026-04-21 20:10 10.45969 123.42256 17998 ft 381 kts 151°
2026-04-21 20:10 10.43661 123.43603 18461 ft 384 kts 151°
2026-04-21 20:10 10.41337 123.44962 18907 ft 387 kts 151°
2026-04-21 20:10 10.38996 123.46329 19354 ft 389 kts 151°
2026-04-21 20:11 10.36642 123.47701 19794 ft 391 kts 151°
2026-04-21 20:11 10.34273 123.49082 20233 ft 394 kts 151°
2026-04-21 20:11 10.31889 123.50474 20674 ft 396 kts 150°
2026-04-21 20:11 10.29496 123.51872 21099 ft 398 kts 150°
2026-04-21 20:12 10.27083 123.53282 21518 ft 401 kts 150°
2026-04-21 20:12 10.24692 123.54680 21923 ft 403 kts 150°
2026-04-21 20:12 10.22257 123.56104 22347 ft 405 kts 150°
2026-04-21 20:12 10.19807 123.57536 22763 ft 408 kts 150°
2026-04-21 20:13 10.17342 123.58976 23154 ft 410 kts 150°
2026-04-21 20:13 10.14861 123.60426 23536 ft 412 kts 150°
2026-04-21 20:13 10.12370 123.61881 23869 ft 414 kts 150°
2026-04-21 20:13 10.09865 123.63344 24199 ft 416 kts 150°
2026-04-21 20:14 10.07347 123.64817 24539 ft 418 kts 150°
2026-04-21 20:14 10.04819 123.66294 24871 ft 420 kts 150°
2026-04-21 20:14 10.02281 123.67774 25198 ft 422 kts 150°
2026-04-21 20:14 9.99730 123.69258 25526 ft 424 kts 150°
2026-04-21 20:15 9.97198 123.70732 25846 ft 426 kts 150°
2026-04-21 20:15 9.94626 123.72232 26172 ft 427 kts 150°
2026-04-21 20:15 9.92041 123.73741 26487 ft 429 kts 150°
2026-04-21 20:15 9.89443 123.75254 26796 ft 431 kts 150°
2026-04-21 20:16 9.86834 123.76772 27100 ft 433 kts 150°
2026-04-21 20:16 9.84214 123.78294 27398 ft 435 kts 150°
2026-04-21 20:16 9.81583 123.79823 27693 ft 437 kts 150°
2026-04-21 20:16 9.78942 123.81359 27992 ft 439 kts 150°
2026-04-21 20:17 9.76289 123.82906 28294 ft 441 kts 150°
2026-04-21 20:17 9.73630 123.84458 28595 ft 443 kts 150°
2026-04-21 20:17 9.70951 123.86017 28885 ft 444 kts 150°
2026-04-21 20:17 9.68263 123.87578 29184 ft 446 kts 150°
2026-04-21 20:18 9.66476 123.88617 29371 ft 447 kts 150°
2026-04-21 20:18 9.62854 123.90720 29756 ft 450 kts 150°
2026-04-21 20:18 9.60135 123.92299 30018 ft 451 kts 151°
2026-04-21 20:18 9.57403 123.93882 30240 ft 453 kts 151°
2026-04-21 20:19 9.54701 123.95450 30456 ft 455 kts 151°
2026-04-21 20:19 9.51951 123.97045 30666 ft 457 kts 151°
2026-04-21 20:19 9.49187 123.98651 30871 ft 458 kts 151°
2026-04-21 20:19 9.46415 124.00263 31069 ft 461 kts 151°
2026-04-21 20:20 9.43628 124.01879 31278 ft 462 kts 151°
2026-04-21 20:20 9.40838 124.03490 31574 ft 462 kts 152°
2026-04-21 20:20 9.38045 124.05098 31855 ft 462 kts 152°
2026-04-21 20:20 9.35251 124.06704 32131 ft 462 kts 152°
2026-04-21 20:21 9.32457 124.08318 32403 ft 462 kts 152°
2026-04-21 20:21 9.29668 124.09936 32676 ft 463 kts 152°
2026-04-21 20:21 9.26875 124.11563 32840 ft 463 kts 152°
2026-04-21 20:22 9.21401 124.14758 32870 ft 448 kts 152°
2026-04-21 20:22 9.13329 124.19443 32867 ft 445 kts 152°
2026-04-21 20:23 9.07985 124.22541 32868 ft 445 kts 152°
2026-04-21 20:23 9.02610 124.25655 32869 ft 445 kts 152°
2026-04-21 20:24 8.97232 124.28760 32868 ft 445 kts 152°
2026-04-21 20:24 8.91852 124.31871 32867 ft 445 kts 152°
2026-04-21 20:25 8.90076 124.32899 32866 ft 445 kts 152°